Time,TemperatureF,DewpointF,PressureIn,WindDirection,WindDirectionDegrees,WindSpeedMPH,WindSpeedGustMPH,Humidity,HourlyPrecipIn,Conditions,Clouds,dailyrainin,SoftwareType,DateUTC
2013-10-02 00:02:00,50.9,36.2,29.94,West,262,0.0,0.0,57,0.00,,CLR,0.00,VWS V14.00,2013-10-02 05:02:00,
2013-10-02 00:07:00,50.8,36.1,29.94,West,262,0.0,0.0,57,0.00,,CLR,0.00,VWS V14.00,2013-10-02 05:07:00,
2013-10-02 00:12:00,50.7,36.0,29.94,West,262,0.0,0.0,57,0.00,,CLR,0.00,VWS V14.00,2013-10-02 05:12:00,
2013-10-02 00:17:00,50.6,35.9,29.95,West,262,0.0,0.0,57,0.00,,CLR,0.00,VWS V14.00,2013-10-02 05:17:00,
2013-10-02 00:22:00,50.3,35.7,29.94,West,262,0.0,0.0,57,0.00,,CLR,0.00,VWS V14.00,2013-10-02 05:22:00,
2013-10-02 00:27:00,50.1,35.9,29.95,West,262,0.0,0.0,58,0.00,,CLR,0.00,VWS V14.00,2013-10-02 05:27:00,
2013-10-02 00:32:00,49.8,36.1,29.95,West,262,0.0,0.0,59,0.00,,CLR,0.00,VWS V14.00,2013-10-02 05:32:00,
2013-10-02 00:37:00,49.5,35.8,29.95,West,262,0.0,0.0,59,0.00,,CLR,0.00,VWS V14.00,2013-10-02 05:37:00,
2013-10-02 00:42:00,49.3,36.0,29.95,West,262,0.0,0.0,60,0.00,,CLR,0.00,VWS V14.00,2013-10-02 05:42:00,
2013-10-02 00:47:00,49.0,36.2,29.95,West,262,0.0,0.0,61,0.00,,CLR,0.00,VWS V14.00,2013-10-02 05:47:00,
2013-10-02 00:52:00,48.8,36.0,29.95,West,262,0.0,0.0,61,0.00,,CLR,0.00,VWS V14.00,2013-10-02 05:52:00,
2013-10-02 00:58:00,48.7,35.9,29.95,West,262,0.0,0.0,61,0.00,,CLR,0.00,VWS V14.00,2013-10-02 05:58:00,
2013-10-02 01:03:00,48.7,35.9,29.95,West,262,0.0,0.0,61,0.00,,CLR,0.00,VWS V14.00,2013-10-02 06:03:00,
2013-10-02 01:08:00,48.7,35.9,29.95,West,262,0.0,0.0,61,0.00,,CLR,0.00,VWS V14.00,2013-10-02 06:08:00,
2013-10-02 01:13:00,48.8,36.4,29.95,West,262,0.0,0.0,62,0.00,,CLR,0.00,VWS V14.00,2013-10-02 06:13:00,
2013-10-02 01:18:00,49.0,36.2,29.95,West,262,0.0,0.0,61,0.00,,CLR,0.00,VWS V14.00,2013-10-02 06:18:00,
2013-10-02 01:23:00,49.4,36.5,29.95,West,262,0.0,0.0,61,0.00,,CLR,0.00,VWS V14.00,2013-10-02 06:23:00,
2013-10-02 01:28:00,49.5,36.2,29.95,West,262,0.0,0.0,60,0.00,,CLR,0.00,VWS V14.00,2013-10-02 06:28:00,
2013-10-02 01:33:00,49.5,36.2,29.95,West,262,0.0,0.0,60,0.00,,CLR,0.00,VWS V14.00,2013-10-02 06:33:00,
2013-10-02 01:38:00,49.4,36.1,29.95,West,262,0.0,0.0,60,0.00,,CLR,0.00,VWS V14.00,2013-10-02 06:38:00,
2013-10-02 01:43:00,49.2,36.3,29.95,West,262,0.0,0.0,61,0.00,,CLR,0.00,VWS V14.00,2013-10-02 06:43:00,
2013-10-02 01:48:00,49.0,36.2,29.95,West,262,0.0,0.0,61,0.00,,CLR,0.00,VWS V14.00,2013-10-02 06:48:00,
2013-10-02 01:53:00,48.9,36.1,29.95,West,262,0.0,0.0,61,0.00,,CLR,0.00,VWS V14.00,2013-10-02 06:53:00,
2013-10-02 01:58:00,48.8,36.4,29.95,West,262,0.0,0.0,62,0.00,,CLR,0.00,VWS V14.00,2013-10-02 06:58:00,
2013-10-02 02:03:00,48.6,36.2,29.95,West,262,0.0,0.0,62,0.00,,CLR,0.00,VWS V14.00,2013-10-02 07:03:00,
2013-10-02 02:08:00,48.5,36.1,29.95,West,262,0.0,0.0,62,0.00,,CLR,0.00,VWS V14.00,2013-10-02 07:08:00,
2013-10-02 02:13:00,48.4,36.4,29.95,West,262,0.0,0.0,63,0.00,,CLR,0.00,VWS V14.00,2013-10-02 07:13:00,
2013-10-02 02:18:00,48.2,36.2,29.95,West,262,0.0,0.0,63,0.00,,CLR,0.00,VWS V14.00,2013-10-02 07:18:00,
2013-10-02 02:23:00,48.1,36.1,29.95,West,262,0.0,0.0,63,0.00,,CLR,0.00,VWS V14.00,2013-10-02 07:23:00,
2013-10-02 02:28:00,47.9,35.9,29.96,West,262,0.0,0.0,63,0.00,,CLR,0.00,VWS V14.00,2013-10-02 07:28:00,
2013-10-02 02:33:00,47.7,36.1,29.96,West,262,0.0,0.0,64,0.00,,CLR,0.00,VWS V14.00,2013-10-02 07:33:00,
2013-10-02 02:38:00,47.4,36.2,29.96,West,262,0.0,0.0,65,0.00,,CLR,0.00,VWS V14.00,2013-10-02 07:38:00,
2013-10-02 02:43:00,47.0,36.2,29.96,West,262,0.0,0.0,66,0.00,,CLR,0.00,VWS V14.00,2013-10-02 07:43:00,
2013-10-02 02:48:00,46.6,36.2,29.96,West,262,0.0,0.0,67,0.00,,CLR,0.00,VWS V14.00,2013-10-02 07:48:00,
2013-10-02 02:53:00,46.4,36.0,29.96,West,262,0.0,0.0,67,0.00,,CLR,0.00,VWS V14.00,2013-10-02 07:53:00,
2013-10-02 02:58:00,46.1,36.1,29.96,West,262,0.0,0.0,68,0.00,,CLR,0.00,VWS V14.00,2013-10-02 07:58:00,
2013-10-02 03:03:00,45.9,36.0,29.96,West,262,0.0,0.0,68,0.00,,CLR,0.00,VWS V14.00,2013-10-02 08:03:00,
2013-10-02 03:08:00,45.7,36.1,29.96,West,262,0.0,0.0,69,0.00,,CLR,0.00,VWS V14.00,2013-10-02 08:08:00,
2013-10-02 03:13:00,45.8,36.6,29.96,West,262,0.0,0.0,70,0.00,,CLR,0.00,VWS V14.00,2013-10-02 08:13:00,
2013-10-02 03:18:00,45.9,36.7,29.96,West,262,0.0,0.0,70,0.00,,CLR,0.00,VWS V14.00,2013-10-02 08:18:00,
2013-10-02 03:23:00,45.8,36.6,29.96,West,262,0.0,0.0,70,0.00,,CLR,0.00,VWS V14.00,2013-10-02 08:23:00,
2013-10-02 03:28:00,45.7,36.5,29.96,West,262,0.0,0.0,70,0.00,,CLR,0.00,VWS V14.00,2013-10-02 08:28:00,
2013-10-02 03:33:00,45.6,36.4,29.96,West,262,0.0,0.0,70,0.00,,CLR,0.00,VWS V14.00,2013-10-02 08:33:00,
2013-10-02 03:38:00,45.4,36.2,29.96,West,262,0.0,0.0,70,0.00,,CLR,0.00,VWS V14.00,2013-10-02 08:38:00,
2013-10-02 03:43:00,45.2,36.0,29.96,West,262,0.0,0.0,70,0.00,,CLR,0.00,VWS V14.00,2013-10-02 08:43:00,
2013-10-02 03:48:00,45.0,36.2,29.96,West,262,0.0,0.0,71,0.00,,CLR,0.00,VWS V14.00,2013-10-02 08:48:00,
2013-10-02 03:53:00,44.7,35.9,29.96,West,262,0.0,0.0,71,0.00,,CLR,0.00,VWS V14.00,2013-10-02 08:53:00,
2013-10-02 03:58:00,44.5,36.0,29.96,West,262,0.0,0.0,72,0.00,,CLR,0.00,VWS V14.00,2013-10-02 08:58:00,
2013-10-02 04:03:00,44.2,35.8,29.96,West,262,0.0,0.0,72,0.00,,CLR,0.00,VWS V14.00,2013-10-02 09:03:00,
2013-10-02 04:09:00,43.9,35.5,29.95,West,262,0.0,0.0,72,0.00,,CLR,0.00,VWS V14.00,2013-10-02 09:09:00,
2013-10-02 04:13:00,43.7,35.6,29.96,West,262,0.0,0.0,73,0.00,,CLR,0.00,VWS V14.00,2013-10-02 09:13:00,
2013-10-02 04:18:00,43.4,35.3,29.96,West,262,0.0,0.0,73,0.00,,CLR,0.00,VWS V14.00,2013-10-02 09:18:00,
2013-10-02 04:23:00,43.4,36.0,29.96,West,262,0.0,0.0,75,0.00,,CLR,0.00,VWS V14.00,2013-10-02 09:23:00,
2013-10-02 04:28:00,43.8,36.4,29.95,West,262,0.0,0.0,75,0.00,,CLR,0.00,VWS V14.00,2013-10-02 09:28:00,
2013-10-02 04:33:00,44.1,36.7,29.95,West,262,0.0,0.0,75,0.00,,CLR,0.00,VWS V14.00,2013-10-02 09:33:00,
2013-10-02 04:38:00,44.2,36.8,29.95,West,262,0.0,0.0,75,0.00,,CLR,0.00,VWS V14.00,2013-10-02 09:38:00,
2013-10-02 04:44:00,44.1,36.7,29.95,West,262,0.0,0.0,75,0.00,,CLR,0.00,VWS V14.00,2013-10-02 09:44:00,
2013-10-02 04:49:00,44.1,36.7,29.94,West,262,0.0,0.0,75,0.00,,CLR,0.00,VWS V14.00,2013-10-02 09:49:00,
2013-10-02 04:54:00,44.2,36.8,29.94,West,262,0.0,0.0,75,0.00,,CLR,0.00,VWS V14.00,2013-10-02 09:54:00,
2013-10-02 04:59:00,44.3,36.9,29.94,West,262,0.0,0.0,75,0.00,,CLR,0.00,VWS V14.00,2013-10-02 09:59:00,
2013-10-02 05:04:00,44.5,37.1,29.94,WSW,258,0.0,0.0,75,0.00,,CLR,0.00,VWS V14.00,2013-10-02 10:04:00,
2013-10-02 05:09:00,45.0,37.6,29.94,WSW,240,0.0,2.0,75,0.00,,CLR,0.00,VWS V14.00,2013-10-02 10:09:00,
2013-10-02 05:14:00,45.4,37.6,29.94,SSW,213,0.0,3.0,74,0.00,,CLR,0.00,VWS V14.00,2013-10-02 10:14:00,
2013-10-02 05:19:00,45.6,37.5,29.94,SSW,207,0.0,5.0,73,0.00,,CLR,0.00,VWS V14.00,2013-10-02 10:19:00,
2013-10-02 05:24:00,45.6,37.5,29.93,SSW,205,0.0,5.0,73,0.00,,CLR,0.00,VWS V14.00,2013-10-02 10:24:00,
2013-10-02 05:29:00,45.6,37.5,29.93,SSW,204,0.0,5.0,73,0.00,,CLR,0.00,VWS V14.00,2013-10-02 10:29:00,
2013-10-02 05:34:00,45.4,37.3,29.93,SSW,202,0.0,5.0,73,0.00,,CLR,0.00,VWS V14.00,2013-10-02 10:34:00,
2013-10-02 05:39:00,45.4,37.6,29.93,SSW,198,0.0,5.0,74,0.00,,CLR,0.00,VWS V14.00,2013-10-02 10:39:00,
2013-10-02 05:44:00,45.7,37.9,29.93,SSW,195,0.0,4.0,74,0.00,,CLR,0.00,VWS V14.00,2013-10-02 10:44:00,
2013-10-02 05:49:00,45.9,37.8,29.93,SSW,193,0.0,5.0,73,0.00,,CLR,0.00,VWS V14.00,2013-10-02 10:49:00,
2013-10-02 05:54:00,46.2,38.0,29.93,SSW,192,0.0,3.0,73,0.00,,CLR,0.00,VWS V14.00,2013-10-02 10:54:00,
2013-10-02 05:59:00,46.5,38.0,29.93,SSW,192,0.0,3.0,72,0.00,,CLR,0.00,VWS V14.00,2013-10-02 10:59:00,
2013-10-02 06:04:00,46.7,38.2,29.93,SSW,192,0.0,0.0,72,0.00,,CLR,0.00,VWS V14.00,2013-10-02 11:04:00,
2013-10-02 06:09:00,47.1,38.5,29.92,South,191,0.0,0.0,72,0.00,,CLR,0.00,VWS V14.00,2013-10-02 11:09:00,
2013-10-02 06:14:00,47.3,38.4,29.92,South,191,0.0,0.0,71,0.00,,CLR,0.00,VWS V14.00,2013-10-02 11:14:00,
2013-10-02 06:19:00,47.6,38.7,29.92,South,191,0.0,0.0,71,0.00,,CLR,0.00,VWS V14.00,2013-10-02 11:19:00,
2013-10-02 06:24:00,47.8,38.5,29.94,South,191,0.0,3.0,70,0.00,,CLR,0.00,VWS V14.00,2013-10-02 11:24:00,
2013-10-02 06:29:00,47.9,38.6,29.93,South,187,0.0,6.0,70,0.00,,CLR,0.00,VWS V14.00,2013-10-02 11:29:00,
2013-10-02 06:34:00,48.1,38.8,29.94,South,181,0.0,7.0,70,0.00,,CLR,0.00,VWS V14.00,2013-10-02 11:34:00,
2013-10-02 06:39:00,48.3,39.0,29.94,South,182,0.0,7.0,70,0.00,,CLR,0.00,VWS V14.00,2013-10-02 11:39:00,
2013-10-02 06:44:00,48.4,38.7,29.95,South,182,0.0,3.0,69,0.00,,CLR,0.00,VWS V14.00,2013-10-02 11:44:00,
2013-10-02 06:49:00,48.5,38.8,29.95,South,182,0.0,5.0,69,0.00,,CLR,0.00,VWS V14.00,2013-10-02 11:49:00,
2013-10-02 06:54:00,48.6,38.9,29.95,South,181,3.0,3.0,69,0.00,,CLR,0.00,VWS V14.00,2013-10-02 11:54:00,
2013-10-02 06:59:00,48.6,38.9,29.95,South,181,0.0,5.0,69,0.00,,CLR,0.00,VWS V14.00,2013-10-02 11:59:00,
2013-10-02 07:04:00,48.6,39.3,29.96,South,181,0.0,4.0,70,0.00,,BKN110,0.00,VWS V14.00,2013-10-02 12:04:00,
2013-10-02 07:09:00,48.7,39.4,29.96,South,181,0.0,4.0,70,0.00,,BKN110,0.00,VWS V14.00,2013-10-02 12:09:00,
2013-10-02 07:14:00,48.8,39.5,29.95,South,181,2.0,3.0,70,0.00,,BKN110,0.00,VWS V14.00,2013-10-02 12:14:00,
2013-10-02 07:19:00,48.9,39.6,29.96,South,181,0.0,3.0,70,0.00,,BKN110,0.00,VWS V14.00,2013-10-02 12:19:00,
2013-10-02 07:24:00,49.0,39.7,29.96,South,181,0.0,0.0,70,0.00,,BKN110,0.00,VWS V14.00,2013-10-02 12:24:00,
2013-10-02 07:29:00,49.1,39.8,29.96,South,181,0.0,0.0,70,0.00,,BKN110,0.00,VWS V14.00,2013-10-02 12:29:00,
2013-10-02 07:34:00,49.2,39.8,29.96,South,181,0.0,0.0,70,0.00,,BKN110,0.00,VWS V14.00,2013-10-02 12:34:00,
2013-10-02 07:39:00,49.4,40.0,29.97,South,177,2.0,7.0,70,0.00,,BKN110,0.00,VWS V14.00,2013-10-02 12:39:00,
2013-10-02 07:44:00,49.6,39.9,29.96,South,177,0.0,5.0,69,0.00,,BKN110,0.00,VWS V14.00,2013-10-02 12:44:00,
2013-10-02 07:49:00,49.8,40.0,29.96,South,181,0.0,8.0,69,0.00,,BKN110,0.00,VWS V14.00,2013-10-02 12:49:00,
2013-10-02 07:54:00,50.0,40.2,29.96,South,181,0.0,0.0,69,0.00,,BKN110,0.00,VWS V14.00,2013-10-02 12:54:00,
2013-10-02 07:59:00,50.3,40.2,29.97,South,190,0.0,2.0,68,0.00,,BKN110,0.00,VWS V14.00,2013-10-02 12:59:00,
2013-10-02 08:04:00,50.5,40.3,29.97,SSW,198,0.0,0.0,68,0.00,,BKN110,0.00,VWS V14.00,2013-10-02 13:04:00,
2013-10-02 08:09:00,50.6,40.4,29.97,SSW,198,0.0,0.0,68,0.00,,BKN110,0.00,VWS V14.00,2013-10-02 13:09:00,
2013-10-02 08:14:00,50.7,40.5,29.97,SSW,202,2.0,3.0,68,0.00,,BKN110,0.00,VWS V14.00,2013-10-02 13:14:00,
2013-10-02 08:19:00,50.9,40.3,29.98,SSW,211,0.0,5.0,67,0.00,,BKN110,0.00,VWS V14.00,2013-10-02 13:19:00,
2013-10-02 08:24:00,51.0,40.8,29.98,SSW,211,0.0,3.0,68,0.00,,BKN110,0.00,VWS V14.00,2013-10-02 13:24:00,
2013-10-02 08:29:00,51.1,40.9,29.98,SSW,211,0.0,3.0,68,0.00,,BKN110,0.00,VWS V14.00,2013-10-02 13:29:00,
2013-10-02 08:34:00,51.1,40.9,29.98,SSW,211,0.0,0.0,68,0.00,,BKN110,0.00,VWS V14.00,2013-10-02 13:34:00,
2013-10-02 08:39:00,51.1,41.3,29.98,SSW,211,0.0,0.0,69,0.00,,BKN110,0.00,VWS V14.00,2013-10-02 13:39:00,
2013-10-02 08:44:00,51.1,41.3,29.98,SSW,211,0.0,0.0,69,0.00,,BKN110,0.00,VWS V14.00,2013-10-02 13:44:00,
2013-10-02 08:49:00,51.0,41.6,29.99,SSW,211,0.0,0.0,70,0.00,,BKN110,0.00,VWS V14.00,2013-10-02 13:49:00,
2013-10-02 08:54:00,51.0,41.6,29.99,SSW,211,0.0,0.0,70,0.00,,BKN110,0.00,VWS V14.00,2013-10-02 13:54:00,
2013-10-02 08:59:00,51.0,41.9,29.99,SSW,211,0.0,0.0,71,0.00,,BKN110,0.00,VWS V14.00,2013-10-02 13:59:00,
2013-10-02 09:04:00,51.0,42.3,29.99,SSW,211,0.0,0.0,72,0.00,,OVC075,0.00,VWS V14.00,2013-10-02 14:04:00,
2013-10-02 09:09:00,51.1,42.8,29.99,SSW,211,0.0,0.0,73,0.00,,OVC075,0.00,VWS V14.00,2013-10-02 14:09:00,
2013-10-02 09:14:00,51.2,42.9,29.99,SSW,211,0.0,0.0,73,0.00,,OVC075,0.00,VWS V14.00,2013-10-02 14:14:00,
2013-10-02 09:19:00,51.4,43.4,29.98,SSW,211,0.0,0.0,74,0.00,,OVC075,0.00,VWS V14.00,2013-10-02 14:19:00,
2013-10-02 09:24:00,51.7,43.7,29.98,SSW,211,0.0,0.0,74,0.00,,OVC075,0.00,VWS V14.00,2013-10-02 14:24:00,
2013-10-02 09:29:00,52.1,44.1,29.98,SSW,211,0.0,3.0,74,0.00,,OVC075,0.00,VWS V14.00,2013-10-02 14:29:00,
2013-10-02 09:34:00,52.5,44.1,29.98,SSW,211,0.0,0.0,73,0.00,,OVC075,0.00,VWS V14.00,2013-10-02 14:34:00,
2013-10-02 09:39:00,53.0,44.2,29.98,SSW,211,0.0,0.0,72,0.00,,OVC075,0.00,VWS V14.00,2013-10-02 14:39:00,
2013-10-02 09:44:00,53.5,44.3,29.98,SSW,210,0.0,0.0,71,0.00,,OVC075,0.00,VWS V14.00,2013-10-02 14:44:00,
2013-10-02 09:49:00,53.8,44.6,29.98,SSW,210,0.0,0.0,71,0.00,,OVC075,0.00,VWS V14.00,2013-10-02 14:49:00,
2013-10-02 09:55:00,53.9,44.7,29.98,SSW,210,0.0,0.0,71,0.00,,OVC075,0.00,VWS V14.00,2013-10-02 14:55:00,
2013-10-02 09:59:00,54.1,45.3,29.98,SSW,210,0.0,0.0,72,0.00,,OVC075,1.02,VWS V14.00,2013-10-02 14:59:00,
2013-10-02 10:05:00,54.2,45.4,29.98,SSW,210,0.0,0.0,72,0.00,,BKN110,0.00,VWS V14.00,2013-10-02 15:05:00,
2013-10-02 10:10:00,54.4,45.2,29.99,SSW,210,0.0,0.0,71,0.00,,BKN110,0.00,VWS V14.00,2013-10-02 15:10:00,
2013-10-02 10:15:00,54.5,44.9,29.99,SSW,210,0.0,0.0,70,0.00,,BKN110,0.00,VWS V14.00,2013-10-02 15:15:00,
2013-10-02 10:20:00,54.4,44.8,29.99,SSW,210,0.0,0.0,70,0.00,,BKN110,0.00,VWS V14.00,2013-10-02 15:20:00,
2013-10-02 10:25:00,54.4,45.2,30.00,SSW,210,0.0,0.0,71,0.00,,BKN110,0.00,VWS V14.00,2013-10-02 15:25:00,
2013-10-02 10:30:00,54.4,45.2,30.00,SSW,210,0.0,0.0,71,0.00,,BKN110,0.00,VWS V14.00,2013-10-02 15:30:00,
2013-10-02 10:34:00,54.4,44.8,30.00,SSW,210,0.0,0.0,70,0.00,,BKN110,0.00,VWS V14.00,2013-10-02 15:34:00,
2013-10-02 10:39:00,54.4,44.8,29.99,SSW,210,0.0,0.0,70,0.00,,BKN110,0.00,VWS V14.00,2013-10-02 15:39:00,
2013-10-02 10:44:00,54.6,45.0,29.99,SSW,210,0.0,0.0,70,0.00,,BKN110,0.00,VWS V14.00,2013-10-02 15:44:00,
2013-10-02 10:49:00,54.7,45.5,29.99,SSW,210,0.0,0.0,71,0.00,,BKN110,0.00,VWS V14.00,2013-10-02 15:49:00,
2013-10-02 10:54:00,54.8,46.0,29.99,SSW,210,0.0,0.0,72,0.00,,BKN110,0.00,VWS V14.00,2013-10-02 15:54:00,
2013-10-02 10:59:00,55.0,46.2,29.99,SSW,210,0.0,0.0,72,0.00,,BKN110,0.00,VWS V14.00,2013-10-02 15:59:00,
2013-10-02 11:04:00,55.2,46.0,29.99,SSW,210,0.0,0.0,71,0.00,,BKN110,0.00,VWS V14.00,2013-10-02 16:04:00,
2013-10-02 11:09:00,55.4,45.8,29.99,SSW,210,0.0,0.0,70,0.00,,BKN110,0.00,VWS V14.00,2013-10-02 16:09:00,
2013-10-02 11:14:00,55.7,45.7,29.98,SSW,210,0.0,0.0,69,0.00,,BKN110,0.00,VWS V14.00,2013-10-02 16:14:00,
2013-10-02 11:19:00,56.2,46.2,29.98,SSW,210,0.0,0.0,69,0.00,,BKN110,0.00,VWS V14.00,2013-10-02 16:19:00,
2013-10-02 11:24:00,57.0,46.2,29.98,SSW,210,0.0,0.0,67,0.00,,BKN110,0.00,VWS V14.00,2013-10-02 16:24:00,
2013-10-02 11:29:00,57.5,45.8,29.98,SSW,210,0.0,0.0,65,0.00,,BKN110,0.00,VWS V14.00,2013-10-02 16:29:00,
2013-10-02 11:34:00,58.0,45.9,29.98,SSW,210,0.0,0.0,64,0.00,,BKN110,0.00,VWS V14.00,2013-10-02 16:34:00,
2013-10-02 11:39:00,58.3,46.2,29.98,SSW,210,0.0,0.0,64,0.00,,BKN110,0.00,VWS V14.00,2013-10-02 16:39:00,
2013-10-02 11:44:00,58.6,46.9,29.98,SSW,210,0.0,0.0,65,0.00,,BKN110,0.00,VWS V14.00,2013-10-02 16:44:00,
2013-10-02 11:49:00,58.9,46.8,29.99,SSW,210,0.0,0.0,64,0.00,,BKN110,0.00,VWS V14.00,2013-10-02 16:49:00,
2013-10-02 11:54:00,59.0,45.6,29.99,SSW,210,0.0,0.0,61,0.00,,BKN110,0.00,VWS V14.00,2013-10-02 16:54:00,
2013-10-02 11:59:00,59.2,45.3,29.99,SSW,210,0.0,0.0,60,0.00,,BKN110,0.00,VWS V14.00,2013-10-02 16:59:00,
2013-10-02 12:04:00,59.3,45.4,29.98,SSW,210,0.0,0.0,60,0.00,,OVC100,0.00,VWS V14.00,2013-10-02 17:04:00,
2013-10-02 12:09:00,59.4,45.1,29.98,SSW,210,0.0,0.0,59,0.00,,OVC100,0.00,VWS V14.00,2013-10-02 17:09:00,
2013-10-02 12:14:00,59.6,46.2,29.99,SSW,210,0.0,0.0,61,0.00,,OVC100,0.00,VWS V14.00,2013-10-02 17:14:00,
2013-10-02 12:19:00,59.7,46.2,29.99,SSW,210,0.0,0.0,61,0.00,,OVC100,0.00,VWS V14.00,2013-10-02 17:19:00,
2013-10-02 12:24:00,59.7,45.8,29.98,SSW,210,0.0,0.0,60,0.00,,OVC100,0.00,VWS V14.00,2013-10-02 17:24:00,
2013-10-02 12:29:00,59.7,45.4,29.98,SSW,210,0.0,0.0,59,0.00,,OVC100,0.00,VWS V14.00,2013-10-02 17:29:00,
2013-10-02 12:34:00,59.8,45.5,29.98,SSW,210,0.0,0.0,59,0.00,,OVC100,0.00,VWS V14.00,2013-10-02 17:34:00,
2013-10-02 12:39:00,59.8,45.5,29.98,SSW,210,0.0,0.0,59,0.00,,OVC100,0.00,VWS V14.00,2013-10-02 17:39:00,
2013-10-02 12:44:00,60.0,46.5,29.98,SSW,210,0.0,1.0,61,0.00,,OVC100,0.00,VWS V14.00,2013-10-02 17:44:00,
2013-10-02 12:49:00,60.0,47.0,29.97,SSW,210,0.0,1.0,62,0.00,,OVC100,0.00,VWS V14.00,2013-10-02 17:49:00,
2013-10-02 12:54:00,60.0,47.4,29.97,SSW,210,0.0,0.0,63,0.00,,OVC100,0.00,VWS V14.00,2013-10-02 17:54:00,
2013-10-02 12:59:00,60.0,47.8,29.97,SW,223,4.0,7.0,64,0.00,,OVC100,0.00,VWS V14.00,2013-10-02 17:59:00,
2013-10-02 13:04:00,59.8,47.6,29.96,North,1,0.0,10.0,64,0.00,,OVC095,0.00,VWS V14.00,2013-10-02 18:04:00,
2013-10-02 13:09:00,59.4,46.8,29.97,North,0,8.0,10.0,63,0.00,,OVC095,0.00,VWS V14.00,2013-10-02 18:09:00,
2013-10-02 13:14:00,59.2,45.3,29.96,North,0,3.0,11.0,60,0.00,,OVC095,0.00,VWS V14.00,2013-10-02 18:14:00,
2013-10-02 13:19:00,59.3,45.0,29.95,North,3,2.0,11.0,59,0.00,,OVC095,0.00,VWS V14.00,2013-10-02 18:19:00,
2013-10-02 13:24:00,59.6,46.2,29.95,North,0,5.0,9.0,61,0.00,,OVC095,0.00,VWS V14.00,2013-10-02 18:24:00,
2013-10-02 13:30:00,60.2,45.8,29.94,North,0,13.0,13.0,59,0.00,,OVC095,0.00,VWS V14.00,2013-10-02 18:30:00,
2013-10-02 13:35:00,60.3,45.5,29.94,North,4,0.0,14.0,58,0.00,,OVC095,0.00,VWS V14.00,2013-10-02 18:35:00,
2013-10-02 13:40:00,60.3,45.9,29.94,North,6,0.0,14.0,59,0.00,,OVC095,0.00,VWS V14.00,2013-10-02 18:40:00,
2013-10-02 13:45:00,60.8,46.0,29.94,North,7,0.0,5.0,58,0.00,,OVC095,0.00,VWS V14.00,2013-10-02 18:45:00,
2013-10-02 13:49:00,61.5,45.7,29.94,NNE,13,2.0,7.0,56,0.00,,OVC095,0.00,VWS V14.00,2013-10-02 18:49:00,
2013-10-02 13:55:00,61.8,44.5,29.93,North,3,0.0,6.0,53,0.00,,OVC095,0.00,VWS V14.00,2013-10-02 18:55:00,
2013-10-02 14:00:00,62.1,43.8,29.93,NNE,16,4.0,4.0,51,0.00,,OVC095,0.00,VWS V14.00,2013-10-02 19:00:00,
2013-10-02 14:05:00,62.6,43.7,29.94,NNE,12,0.0,9.0,50,0.00,,FEW090,0.00,VWS V14.00,2013-10-02 19:05:00,
2013-10-02 14:10:00,63.0,44.1,29.93,NE,35,0.0,8.0,50,0.00,,FEW090,0.00,VWS V14.00,2013-10-02 19:10:00,
2013-10-02 14:15:00,63.4,44.5,29.93,NE,36,0.0,8.0,50,0.00,,FEW090,0.00,VWS V14.00,2013-10-02 19:15:00,
2013-10-02 14:20:00,63.8,43.2,29.93,NNE,32,5.0,7.0,47,0.00,,FEW090,0.00,VWS V14.00,2013-10-02 19:20:00,
2013-10-02 14:25:00,63.9,43.3,29.93,NNE,28,3.0,11.0,47,0.00,,FEW090,0.00,VWS V14.00,2013-10-02 19:25:00,
2013-10-02 14:30:00,63.8,42.6,29.93,NE,39,2.0,2.0,46,0.00,,FEW090,0.00,VWS V14.00,2013-10-02 19:30:00,
2013-10-02 14:35:00,63.7,43.7,29.93,North,6,0.0,15.0,48,0.00,,FEW090,0.00,VWS V14.00,2013-10-02 19:35:00,
2013-10-02 14:40:00,63.8,44.3,29.93,NNE,29,5.0,8.0,49,0.00,,FEW090,0.00,VWS V14.00,2013-10-02 19:40:00,
2013-10-02 14:45:00,64.2,43.6,29.93,NNE,12,18.0,18.0,47,0.00,,FEW090,0.00,VWS V14.00,2013-10-02 19:45:00,
2013-10-02 14:50:00,64.3,43.1,29.93,NNE,20,4.0,4.0,46,0.00,,FEW090,0.00,VWS V14.00,2013-10-02 19:50:00,
2013-10-02 14:55:00,64.2,42.4,29.94,North,6,7.0,16.0,45,0.00,,FEW090,0.00,VWS V14.00,2013-10-02 19:55:00,
2013-10-02 15:00:00,63.9,43.3,29.94,NE,56,6.0,9.0,47,0.00,,FEW090,0.00,VWS V14.00,2013-10-02 20:00:00,
2013-10-02 15:05:00,63.7,43.7,29.94,NE,49,7.0,11.0,48,0.00,,OVC095,0.00,VWS V14.00,2013-10-02 20:05:00,
2013-10-02 15:10:00,63.4,43.4,29.94,NE,40,4.0,6.0,48,0.00,,OVC095,0.00,VWS V14.00,2013-10-02 20:10:00,
2013-10-02 15:15:00,63.1,44.7,29.93,NE,46,4.0,12.0,51,0.00,,OVC095,0.00,VWS V14.00,2013-10-02 20:15:00,
2013-10-02 15:20:00,62.6,45.2,29.93,NNE,28,3.0,9.0,53,0.00,,OVC095,0.00,VWS V14.00,2013-10-02 20:20:00,
2013-10-02 15:25:00,62.1,46.2,29.94,NE,48,0.0,11.0,56,0.00,,OVC095,0.00,VWS V14.00,2013-10-02 20:25:00,
2013-10-02 15:30:00,61.7,46.8,29.94,NNE,19,0.0,0.0,58,0.00,,OVC095,0.00,VWS V14.00,2013-10-02 20:30:00,
2013-10-02 15:35:00,61.5,47.1,29.94,NNE,29,0.0,0.0,59,0.00,,OVC095,0.00,VWS V14.00,2013-10-02 20:35:00,
2013-10-02 15:40:00,61.9,48.8,29.93,NNE,30,4.0,4.0,62,0.00,,OVC095,0.00,VWS V14.00,2013-10-02 20:40:00,
2013-10-02 15:45:00,62.5,47.5,29.94,NNE,17,0.0,13.0,58,0.00,,OVC095,0.00,VWS V14.00,2013-10-02 20:45:00,
2013-10-02 15:50:00,62.6,46.7,29.94,NNE,18,5.0,8.0,56,0.00,,OVC095,0.00,VWS V14.00,2013-10-02 20:50:00,
2013-10-02 15:55:00,62.7,46.8,29.94,NE,53,0.0,13.0,56,0.00,,OVC095,0.00,VWS V14.00,2013-10-02 20:55:00,
2013-10-02 16:00:00,62.7,46.8,29.94,NNE,26,0.0,3.0,56,0.00,,OVC100,0.00,VWS V14.00,2013-10-02 21:00:00,
2013-10-02 16:05:00,62.7,45.8,29.94,NNE,33,4.0,11.0,54,0.00,,OVC100,0.00,VWS V14.00,2013-10-02 21:05:00,
2013-10-02 16:10:00,62.6,45.7,29.94,NNE,27,0.0,0.0,54,0.00,,OVC100,0.00,VWS V14.00,2013-10-02 21:10:00,
2013-10-02 16:15:00,62.4,45.5,29.95,NE,55,5.0,11.0,54,0.00,,OVC100,0.00,VWS V14.00,2013-10-02 21:15:00,
2013-10-02 16:20:00,62.2,45.4,29.95,NE,45,0.0,0.0,54,0.00,,OVC100,0.00,VWS V14.00,2013-10-02 21:20:00,
2013-10-02 16:25:00,62.0,47.1,29.94,NE,54,3.0,10.0,58,0.01,,OVC100,0.01,VWS V14.00,2013-10-02 21:25:00,
2013-10-02 16:30:00,61.4,48.7,29.94,NE,48,0.0,1.0,63,0.03,,OVC100,0.03,VWS V14.00,2013-10-02 21:30:00,
2013-10-02 16:35:00,60.2,48.4,29.94,ENE,61,5.0,11.0,65,0.03,,OVC100,0.03,VWS V14.00,2013-10-02 21:35:00,
2013-10-02 16:40:00,59.2,48.3,29.94,NE,41,0.0,8.0,67,0.03,,OVC100,0.03,VWS V14.00,2013-10-02 21:40:00,
2013-10-02 16:45:00,58.6,48.1,29.94,NE,48,0.0,9.0,68,0.03,,OVC100,0.03,VWS V14.00,2013-10-02 21:45:00,
2013-10-02 16:50:00,58.4,48.7,29.94,NE,50,0.0,0.0,70,0.03,,OVC100,0.03,VWS V14.00,2013-10-02 21:50:00,
2013-10-02 16:56:00,58.3,48.6,29.94,NE,53,0.0,0.0,70,0.03,,OVC100,0.03,VWS V14.00,2013-10-02 21:56:00,
2013-10-02 17:01:00,58.3,49.0,29.94,NE,53,0.0,0.0,71,0.03,,OVC100,0.03,VWS V14.00,2013-10-02 22:01:00,
2013-10-02 17:06:00,58.3,49.0,29.94,NE,53,0.0,0.0,71,0.03,,OVC100,0.03,VWS V14.00,2013-10-02 22:06:00,
2013-10-02 17:11:00,58.4,49.0,29.94,ENE,62,0.0,0.0,71,0.03,,OVC100,0.03,VWS V14.00,2013-10-02 22:11:00,
2013-10-02 17:16:00,58.6,48.5,29.94,ENE,63,0.0,0.0,69,0.03,,OVC100,0.03,VWS V14.00,2013-10-02 22:16:00,
2013-10-02 17:21:00,58.8,48.7,29.94,ENE,58,0.0,0.0,69,0.03,,OVC100,0.03,VWS V14.00,2013-10-02 22:21:00,
2013-10-02 17:26:00,58.8,48.3,29.94,NE,50,2.0,12.0,68,0.03,,OVC100,0.03,VWS V14.00,2013-10-02 22:26:00,
2013-10-02 17:31:00,58.8,48.3,29.94,NE,45,6.0,8.0,68,0.00,,OVC100,0.03,VWS V14.00,2013-10-02 22:31:00,
2013-10-02 17:36:00,58.7,48.2,29.94,ENE,57,5.0,9.0,68,0.00,,OVC100,0.03,VWS V14.00,2013-10-02 22:36:00,
2013-10-02 17:41:00,58.6,47.3,29.95,NE,47,7.0,10.0,66,0.00,,OVC100,0.03,VWS V14.00,2013-10-02 22:41:00,
2013-10-02 17:46:00,58.6,47.7,29.95,NE,51,4.0,10.0,67,0.00,,OVC100,0.03,VWS V14.00,2013-10-02 22:46:00,
2013-10-02 17:51:00,58.7,47.8,29.95,ENE,58,3.0,8.0,67,0.00,,OVC100,0.03,VWS V14.00,2013-10-02 22:51:00,
2013-10-02 17:56:00,58.8,47.9,29.95,NE,53,3.0,9.0,67,0.00,,OVC100,0.03,VWS V14.00,2013-10-02 22:56:00,
2013-10-02 18:01:00,58.8,47.5,29.94,ENE,59,6.0,9.0,66,0.00,,BKN090,0.03,VWS V14.00,2013-10-02 23:01:00,
2013-10-02 18:06:00,58.7,47.8,29.94,NE,56,6.0,11.0,67,0.00,,BKN090,0.03,VWS V14.00,2013-10-02 23:06:00,
2013-10-02 18:11:00,58.5,47.6,29.94,East,79,2.0,8.0,67,0.00,,BKN090,0.03,VWS V14.00,2013-10-02 23:11:00,
2013-10-02 18:16:00,58.3,47.4,29.94,NE,54,5.0,10.0,67,0.00,,BKN090,0.03,VWS V14.00,2013-10-02 23:16:00,
2013-10-02 18:21:00,58.3,47.0,29.94,NE,50,10.0,11.0,66,0.00,,BKN090,0.03,VWS V14.00,2013-10-02 23:21:00,
2013-10-02 18:26:00,58.3,46.6,29.94,ENE,72,0.0,11.0,65,0.00,,BKN090,0.03,VWS V14.00,2013-10-02 23:26:00,
2013-10-02 18:31:00,58.2,46.5,29.94,NE,50,4.0,10.0,65,0.00,,BKN090,0.03,VWS V14.00,2013-10-02 23:31:00,
2013-10-02 18:36:00,58.0,46.3,29.94,ENE,65,1.0,10.0,65,0.00,,BKN090,0.03,VWS V14.00,2013-10-02 23:36:00,
2013-10-02 18:41:00,57.7,46.4,29.94,ENE,57,5.0,7.0,66,0.00,,BKN090,0.03,VWS V14.00,2013-10-02 23:41:00,
2013-10-02 18:46:00,57.3,46.5,29.94,NE,42,7.0,8.0,67,0.00,,BKN090,0.03,VWS V14.00,2013-10-02 23:46:00,
2013-10-02 18:49:00,56.9,46.1,29.94,NE,54,3.0,8.0,67,0.00,,BKN090,0.03,VWS V14.00,2013-10-02 23:49:00,
2013-10-02 18:54:00,56.5,46.1,29.94,NE,55,0.0,8.0,68,0.00,,BKN090,0.03,VWS V14.00,2013-10-02 23:54:00,
2013-10-02 18:59:00,56.1,45.7,29.94,NE,36,0.0,8.0,68,0.00,,BKN090,1.02,VWS V14.00,2013-10-02 23:59:00,
2013-10-02 19:05:00,55.7,45.7,29.94,NE,37,0.0,0.0,69,0.00,,CLR,0.03,VWS V14.00,2013-10-03 00:05:00,
2013-10-02 19:10:00,55.2,45.6,29.94,NE,37,0.0,0.0,70,0.00,,CLR,0.03,VWS V14.00,2013-10-03 00:10:00,
2013-10-02 19:15:00,54.9,45.3,29.94,NE,37,0.0,0.0,70,0.00,,CLR,0.03,VWS V14.00,2013-10-03 00:15:00,
2013-10-02 19:20:00,54.4,45.2,29.94,NE,37,0.0,0.0,71,0.00,,CLR,0.03,VWS V14.00,2013-10-03 00:20:00,
2013-10-02 19:25:00,54.1,45.3,29.94,NE,37,0.0,0.0,72,0.00,,CLR,0.03,VWS V14.00,2013-10-03 00:25:00,
2013-10-02 19:30:00,53.7,45.3,29.95,NE,37,0.0,0.0,73,0.00,,CLR,0.03,VWS V14.00,2013-10-03 00:30:00,
2013-10-02 19:35:00,53.4,45.0,29.94,NE,37,0.0,0.0,73,0.00,,CLR,0.03,VWS V14.00,2013-10-03 00:35:00,
2013-10-02 19:40:00,53.0,45.0,29.95,NE,37,0.0,0.0,74,0.00,,CLR,0.03,VWS V14.00,2013-10-03 00:40:00,
2013-10-02 19:45:00,52.7,45.0,29.95,NE,37,0.0,0.0,75,0.00,,CLR,0.03,VWS V14.00,2013-10-03 00:45:00,
2013-10-02 19:50:00,52.4,45.1,29.95,NE,37,0.0,0.0,76,0.00,,CLR,0.03,VWS V14.00,2013-10-03 00:50:00,
2013-10-02 19:55:00,52.1,45.1,29.95,NE,37,0.0,0.0,77,0.00,,CLR,0.03,VWS V14.00,2013-10-03 00:55:00,
2013-10-02 20:00:00,51.9,44.9,29.95,NE,37,0.0,0.0,77,0.00,,CLR,0.03,VWS V14.00,2013-10-03 01:00:00,
2013-10-02 20:05:00,51.8,45.2,29.95,NE,37,0.0,0.0,78,0.00,,CLR,0.03,VWS V14.00,2013-10-03 01:05:00,
2013-10-02 20:10:00,51.5,44.9,29.95,North,6,0.0,0.0,78,0.00,,CLR,0.03,VWS V14.00,2013-10-03 01:10:00,
2013-10-02 20:15:00,51.3,44.7,29.96,North,6,0.0,0.0,78,0.00,,CLR,0.03,VWS V14.00,2013-10-03 01:15:00,
2013-10-02 20:20:00,51.2,44.6,29.96,North,6,0.0,0.0,78,0.00,,CLR,0.03,VWS V14.00,2013-10-03 01:20:00,
2013-10-02 20:25:00,51.1,44.5,29.96,North,6,0.0,0.0,78,0.00,,CLR,0.03,VWS V14.00,2013-10-03 01:25:00,
2013-10-02 20:30:00,50.9,44.3,29.96,North,6,0.0,0.0,78,0.00,,CLR,0.03,VWS V14.00,2013-10-03 01:30:00,
2013-10-02 20:35:00,50.8,44.5,29.96,North,6,0.0,0.0,79,0.00,,CLR,0.03,VWS V14.00,2013-10-03 01:35:00,
2013-10-02 20:40:00,50.8,44.5,29.97,North,6,0.0,0.0,79,0.00,,CLR,0.03,VWS V14.00,2013-10-03 01:40:00,
2013-10-02 20:45:00,50.6,44.3,29.97,North,6,0.0,0.0,79,0.00,,CLR,0.03,VWS V14.00,2013-10-03 01:45:00,
2013-10-02 20:50:00,50.5,44.2,29.97,North,6,0.0,0.0,79,0.00,,CLR,0.03,VWS V14.00,2013-10-03 01:50:00,
2013-10-02 20:55:00,50.3,44.0,29.97,North,6,0.0,0.0,79,0.00,,CLR,0.03,VWS V14.00,2013-10-03 01:55:00,
2013-10-02 21:00:00,50.1,43.8,29.98,North,6,0.0,0.0,79,0.00,,CLR,0.03,VWS V14.00,2013-10-03 02:00:00,
2013-10-02 21:05:00,49.9,43.7,29.98,North,6,0.0,0.0,79,0.00,,CLR,0.03,VWS V14.00,2013-10-03 02:05:00,
2013-10-02 21:10:00,49.7,43.8,29.98,North,6,0.0,0.0,80,0.00,,CLR,0.03,VWS V14.00,2013-10-03 02:10:00,
2013-10-02 21:15:00,49.4,43.5,29.98,North,6,0.0,0.0,80,0.00,,CLR,0.03,VWS V14.00,2013-10-03 02:15:00,
2013-10-02 21:20:00,49.1,43.2,29.98,North,6,0.0,0.0,80,0.00,,CLR,0.03,VWS V14.00,2013-10-03 02:20:00,
2013-10-02 21:25:00,48.8,42.9,29.98,North,6,0.0,0.0,80,0.00,,CLR,0.03,VWS V14.00,2013-10-03 02:25:00,
2013-10-02 21:30:00,48.5,42.6,29.98,North,6,0.0,0.0,80,0.00,,CLR,0.03,VWS V14.00,2013-10-03 02:30:00,
2013-10-02 21:35:00,48.2,42.7,29.98,North,6,0.0,0.0,81,0.00,,CLR,0.03,VWS V14.00,2013-10-03 02:35:00,
2013-10-02 21:40:00,48.1,42.5,29.98,North,6,0.0,0.0,81,0.00,,CLR,0.03,VWS V14.00,2013-10-03 02:40:00,
2013-10-02 21:45:00,47.9,42.7,29.98,North,6,0.0,0.0,82,0.00,,CLR,0.03,VWS V14.00,2013-10-03 02:45:00,
2013-10-02 21:50:00,47.8,42.6,29.98,North,6,0.0,0.0,82,0.00,,CLR,0.03,VWS V14.00,2013-10-03 02:50:00,
2013-10-02 21:55:00,47.6,42.4,29.98,North,6,0.0,0.0,82,0.00,,CLR,0.03,VWS V14.00,2013-10-03 02:55:00,
2013-10-02 22:00:00,47.4,42.2,29.98,North,6,0.0,0.0,82,0.00,,CLR,0.03,VWS V14.00,2013-10-03 03:00:00,
2013-10-02 22:05:00,47.2,42.0,29.98,North,6,0.0,0.0,82,0.00,,CLR,0.03,VWS V14.00,2013-10-03 03:05:00,
2013-10-02 22:10:00,46.9,41.7,29.98,North,6,0.0,0.0,82,0.00,,CLR,0.03,VWS V14.00,2013-10-03 03:10:00,
2013-10-02 22:15:00,46.7,41.5,29.98,North,6,0.0,0.0,82,0.00,,CLR,0.03,VWS V14.00,2013-10-03 03:15:00,
2013-10-02 22:20:00,46.6,41.7,29.98,North,6,0.0,0.0,83,0.00,,CLR,0.03,VWS V14.00,2013-10-03 03:20:00,
2013-10-02 22:25:00,46.5,41.6,29.98,North,6,0.0,0.0,83,0.00,,CLR,0.03,VWS V14.00,2013-10-03 03:25:00,
2013-10-02 22:30:00,46.4,41.5,29.98,North,6,0.0,0.0,83,0.00,,CLR,0.03,VWS V14.00,2013-10-03 03:30:00,
2013-10-02 22:35:00,46.4,41.5,29.98,North,6,0.0,0.0,83,0.00,,CLR,0.03,VWS V14.00,2013-10-03 03:35:00,
2013-10-02 22:41:00,46.4,41.8,29.97,North,6,0.0,0.0,84,0.00,,CLR,0.03,VWS V14.00,2013-10-03 03:41:00,
2013-10-02 22:46:00,46.4,41.8,29.97,North,6,0.0,0.0,84,0.00,,CLR,0.03,VWS V14.00,2013-10-03 03:46:00,
2013-10-02 22:51:00,46.3,41.7,29.97,North,6,0.0,0.0,84,0.00,,CLR,0.03,VWS V14.00,2013-10-03 03:51:00,
2013-10-02 22:56:00,46.3,41.7,29.97,North,6,0.0,0.0,84,0.00,,CLR,0.03,VWS V14.00,2013-10-03 03:56:00,
2013-10-02 23:01:00,46.1,41.5,29.97,North,6,0.0,0.0,84,0.00,,CLR,0.03,VWS V14.00,2013-10-03 04:01:00,
2013-10-02 23:02:00,46.1,41.5,29.97,North,6,0.0,0.0,84,0.00,,CLR,0.03,VWS V14.00,2013-10-03 04:02:00,
2013-10-02 23:03:00,46.1,41.5,29.97,North,6,0.0,0.0,84,0.00,,CLR,0.03,VWS V14.00,2013-10-03 04:03:00,
2013-10-02 23:08:00,45.9,41.3,29.97,North,6,0.0,0.0,84,0.00,,CLR,0.03,VWS V14.00,2013-10-03 04:08:00,
2013-10-02 23:13:00,45.8,41.2,29.97,North,6,0.0,0.0,84,0.00,,CLR,0.03,VWS V14.00,2013-10-03 04:13:00,
2013-10-02 23:18:00,45.6,41.0,29.98,North,6,0.0,0.0,84,0.00,,CLR,0.03,VWS V14.00,2013-10-03 04:18:00,
2013-10-02 23:23:00,45.5,41.3,29.98,North,6,0.0,0.0,85,0.00,,CLR,0.03,VWS V14.00,2013-10-03 04:23:00,
2013-10-02 23:28:00,45.3,41.1,29.98,North,6,0.0,0.0,85,0.00,,CLR,0.03,VWS V14.00,2013-10-03 04:28:00,
2013-10-02 23:33:00,45.1,40.9,29.98,North,6,0.0,0.0,85,0.00,,CLR,0.03,VWS V14.00,2013-10-03 04:33:00,
2013-10-02 23:38:00,45.0,40.8,29.98,North,6,0.0,0.0,85,0.00,,CLR,0.03,VWS V14.00,2013-10-03 04:38:00,
2013-10-02 23:43:00,44.9,40.7,29.98,North,6,0.0,0.0,85,0.00,,CLR,0.03,VWS V14.00,2013-10-03 04:43:00,
2013-10-02 23:48:00,44.8,40.6,29.98,North,6,0.0,0.0,85,0.00,,CLR,0.03,VWS V14.00,2013-10-03 04:48:00,
2013-10-02 23:53:00,44.6,40.4,29.98,North,6,0.0,0.0,85,0.00,,CLR,0.03,VWS V14.00,2013-10-03 04:53:00,
2013-10-02 23:58:00,44.5,40.3,29.97,North,6,0.0,0.0,85,0.00,,CLR,0.03,VWS V14.00,2013-10-03 04:58:00,